This is the latest recevied weather packets stored in our database for station/object KF6YUA. If no packets are shown the sender has not sent any weather packets the latest 1 day(s).
| Time | Temp. | Humidity | Pressure | Rain* | Wind** | Luminosity | Snow |
|---|---|---|---|---|---|---|---|
| 1778043584 | 12.22° C | 93% | 1019.7 hPa | 0 mm | - | 0 W/m² | - |
| 1778042977 | 12.22° C | 93% | 1019.5 hPa | 0 mm | - | 0 W/m² | - |
| 1778042675 | 12.22° C | 93% | 1019.5 hPa | 0 mm | - | 0 W/m² | - |
| 1778042069 | 12.22° C | 93% | 1019.5 hPa | 0 mm | - | 0 W/m² | - |
| 1778041767 | 12.78° C | 93% | 1019.2 hPa | 0 mm | - | 0 W/m² | - |
| 1778041466 | 12.78° C | 93% | 1019.2 hPa | 0 mm | - | 0 W/m² | - |
| 1778041164 | 12.78° C | 93% | 1019.1 hPa | 0 mm | - | 0 W/m² | - |
| 1778040861 | 12.78° C | 93% | 1019.2 hPa | 0 mm | - | 0 W/m² | - |
| 1778040558 | 12.22° C | 93% | 1019 hPa | 0 mm | - | 0 W/m² | - |
| 1778039951 | 12.78° C | 93% | 1018.8 hPa | 0 mm | - | 0 W/m² | - |
| 1778039346 | 12.78° C | 92% | 1018.8 hPa | 0 mm | - | 0 W/m² | - |
| 1778038740 | 12.78° C | 91% | 1018.6 hPa | 0 mm | - | 0 W/m² | - |
| 1778038437 | 12.78° C | 91% | 1018.5 hPa | 0 mm | - | 0 W/m² | - |
| 1778038134 | 13.33° C | 90% | 1018.7 hPa | 0 mm | - | 0 W/m² | - |
| 1778037225 | 13.89° C | 87% | 1018.2 hPa | 0 mm | - | 0 W/m² | - |
| 1778036923 | 13.89° C | 86% | 1018 hPa | 0 mm | - | 0 W/m² | - |
| 1778036317 | 14.44° C | 85% | 1018 hPa | 0 mm | - | 5 W/m² | - |
| 1778036013 | 14.44° C | 84% | 1018 hPa | 0 mm | - | 0 W/m² | - |
| 1778035710 | 14.44° C | 84% | 1018 hPa | 0 mm | - | 2 W/m² | - |
| 1778035407 | 14.44° C | 83% | 1017.9 hPa | 0 mm | - | 7 W/m² | - |
| 1778035103 | 14.44° C | 83% | 1017.9 hPa | 0 mm | - | 10 W/m² | - |
| 1778034800 | 14.44° C | 83% | 1017.8 hPa | 0 mm | - | 16 W/m² | - |
| 1778034497 | 14.44° C | 82% | 1017.6 hPa | 0 mm | - | 18 W/m² | - |
| 1778034195 | 14.44° C | 83% | 1017.8 hPa | 0 mm | - | 22 W/m² | - |
| 1778033893 | 15° C | 83% | 1017.8 hPa | 0 mm | - | 24 W/m² | - |
* Rain latest hour (hover to see other rain measurements)
** Current wind speed in m/s (hover to see current wind gust speed)